TITAN 3C TRANSTAGE DEB, 36984

Orbit data source: Space-Track

TITAN 3C TRANSTAGE DEB, 36984 is space debris originally from a launch on Tue, 21 Dec 1965 UTC launched from the Air Force Eastern Test Range (AFETR). Debris objects in space refer to the collection of defunct objects orbiting the Earth. Examples of debris include non-operational satellites, rocket bodies, and fragments generated from explosions, collisions, or faulty payload assembly.

Loading next visibility...
Identifier
36984, 1965-108DQ
Orbit
Active
Country
Flag of USUS
Related business
Manufacturer
Unknown
Mission
Spacecraft
Bus & Motor
Unknown
Mass
Unknown
Launch date (UTC)
1965-12-21 (60 years ago)
Launch vehicle
Unknown
Launch site
Air Force Eastern Test Range (AFETR)
Object type
Payload
Rocket body
Debris
Shape & HBR
Unknown shape, 0.1 m
Radar Cross Section
Medium (>0.1 m² and <1 m²)

Expand to show TLE details & history
Last TLE update: 2 weeks ago

TLE from 2 weeks ago
0 TITAN 3C TRANSTAGE DEB
1 36984U 65108DQ  26151.82040491  .00001314  00000-0  26110-2 0  9994
2 36984  26.4428 330.1426 4098908 113.4284 294.3706  6.77750788641106
Epoch: 2026-05-31T19:41Z
TLE epoch observation values (Epoch: 2026-05-31T19:41:22.984Z)
Latitude
-0°
Longitude
145.48023°
Altitude
5,340.544 km
Speed
5.852 km/s
True Right ascension
22h 00m 34s
True Declination
0° 00' 00"
Sunlit
Object was in daylight at epoch
Visualization orbit readout
Latitude
Unknown
Longitude
Unknown
Altitude
Unknown
Speed
Unknown
Apparent Right ascension
Unknown
Apparent Declination
Unknown
Sunlit
N/A
Visualization observer readout
Local Sidereal Time
03:16:45
Azimuth
Unknown
Elevation
Unknown
Doppler factor
Unknown
Orbital elements
Apogee altitude
10,256.048 km
Perigee altitude
584.094 km
Semi-major axis
11,798.208 km
Eccentricity
0.40989
Inclination
26.4428°
RAAN
330.1426°
Arg. of periapsis
113.4284°
True anomaly
246.61496°
Mean anomaly
294.3706°
Eccentric anomaly
270.88841°
Mean motion
1.69363 °/min
Orbital period
212.56 mins
BSTAR
0.002611
Loading maneuver chart data...
Computing Atmospheric mass density...

Documentation

Showing up to 5 results
|